Wind_Speed
29 27 25 24 21 19 17 17 17 17 15 13 14 16 16 15 13 10 8 7 7 9 8 9 12 13 13 14 15 17 17 17 17 17 16 16 14 13 12 12 11 11 11 11 11 11 10 11 15 17 17 15 13 11 8 7 8 9 11 13 15 13 7 6 11 15 12 8 6 5 4 3 3 3 5 7 7 7 8 9 8 7 9 11 11
28 26 25 25 22 20 19 17 17 17 15 13 13 15 16 15 13 10 8 7 8 10 10 11 13 13 13 14 14 16 16 15 15 14 14 13 12 11 10 9 8 8 8 7 7 8 9 10 11 13 13 13 10 9 10 9 9 10 10 11 12 10 6 6 9 11 11 10 9 8 8 8 5 2 4 7 7 6 7 8 7 5 6 7 9
26 25 24 24 22 21 20 17 17 16 14 13 12 13 14 14 12 10 9 8 9 10 11 11 12 12 12 13 13 14 14 13 12 12 11 11 10 8 7 6 5 5 5 4 4 5 6 7 9 9 9 11 11 11 12 12 9 8 9 8 8 8 6 6 6 7 10 12 11 10 9 7 5 2 3 4 5 4 5 5 3 1 1 3 7
25 26 25 23 22 22 21 19 17 15 13 12 12 12 13 13 12 10 9 9 10 11 10 10 12 12 11 11 11 12 12 11 10 10 10 9 8 6 5 4 5 6 5 4 3 2 3 5 7 8 9 11 13 12 12 13 11 10 10 9 9 7 7 6 4 5 10 12 12 11 8 7 5 2 1 1 2 2 4 3 2 3 1 5 9
23 26 26 24 23 22 20 18 16 13 12 11 12 12 12 11 11 10 9 9 11 12 10 9 11 11 9 9 9 9 10 10 9 9 9 7 6 5 5 5 6 8 7 6 4 3 1 2 3 6 9 12 13 13 12 11 11 11 11 12 13 11 10 10 6 5 7 10 11 11 9 8 5 3 3 2 3 7 8 8 7 6 5 7 11
17 20 23 22 22 20 17 16 16 15 14 13 13 13 12 11 11 10 9 10 11 13 11 9 10 11 10 9 8 8 9 9 8 7 6 5 5 5 5 6 7 8 9 9 8 6 4 3 4 4 6 8 10 12 12 10 9 10 10 12 14 14 14 13 10 8 7 7 9 11 11 9 5 5 6 5 7 8 9 9 10 10 11 12 14
12 15 17 17 19 18 16 17 18 16 15 15 15 14 12 13 12 11 11 10 11 13 11 9 10 12 12 10 9 9 9 7 7 6 6 6 6 6 6 6 7 8 9 10 10 8 6 7 7 7 6 6 7 9 10 10 9 9 10 12 14 14 13 11 10 11 10 8 8 9 10 9 6 7 9 8 8 9 10 11 12 13 14 16 19
12 12 13 14 17 16 15 17 18 16 16 16 17 15 14 14 12 12 12 11 12 13 12 11 11 13 12 10 11 12 11 9 9 8 8 8 8 9 9 8 8 9 9 9 9 8 7 8 9 10 10 9 9 8 9 10 9 9 11 12 13 11 9 9 11 12 12 10 8 6 7 8 9 8 9 9 10 12 13 14 16 17 18 19 21
11 13 15 15 16 15 14 16 17 17 17 18 18 17 15 15 15 14 14 13 12 14 15 14 13 14 14 13 13 14 13 13 13 12 12 12 11 12 12 11 11 11 10 10 10 10 9 9 9 11 11 12 12 11 11 11 11 11 12 12 12 11 9 9 12 14 13 11 9 7 7 8 10 11 12 13 14 15 16 16 17 18 19 21 22
8 10 12 14 15 16 16 16 17 19 19 19 21 18 15 16 17 16 17 16 14 15 15 15 15 15 17 17 16 16 16 16 16 16 16 16 16 16 15 15 14 13 12 11 12 12 12 11 12 13 13 13 13 13 13 13 12 12 13 13 13 12 11 10 11 14 15 13 10 9 10 10 11 13 14 14 15 15 16 16 16 17 19 21 22
8 6 7 10 12 13 14 15 17 19 18 18 20 19 17 18 18 18 19 18 17 17 17 16 17 17 18 19 19 19 18 18 18 18 19 19 19 19 19 17 16 15 15 15 15 15 14 14 14 14 15 16 15 14 13 12 12 12 13 13 12 11 10 9 10 13 15 14 12 11 11 12 12 13 13 13 13 13 14 15 16 18 20 22 23
14 13 12 11 10 9 10 12 14 14 14 16 19 20 20 21 20 20 20 19 19 19 18 19 19 19 20 21 21 22 22 22 21 21 20 20 20 21 21 20 18 18 19 19 18 18 18 18 17 16 18 19 18 16 14 12 12 12 12 12 11 10 10 9 10 11 12 14 14 13 13 13 13 14 14 14 14 14 15 17 19 20 21 22 24
18 17 16 14 11 10 8 9 11 10 11 14 17 17 18 19 18 18 20 20 20 20 20 21 21 22 23 23 23 24 24 24 23 23 22 21 20 21 21 21 21 22 22 21 21 21 21 21 20 19 20 20 19 17 15 12 12 12 12 12 12 11 11 10 10 11 12 13 14 14 15 16 15 15 16 16 16 17 17 19 20 20 21 22 24
24 23 21 18 16 14 11 9 7 6 6 7 7 8 9 10 11 12 13 14 15 16 18 20 21 23 24 25 25 25 25 25 24 24 24 22 20 20 21 21 22 22 22 21 21 22 23 23 21 19 19 19 19 18 15 12 12 13 13 13 12 12 12 12 12 12 13 13 14 14 16 16 16 16 17 17 18 19 19 20 20 21 22 23 24
24 24 23 22 20 19 17 13 11 10 8 7 5 3 2 2 3 5 7 8 9 10 12 14 16 19 21 24 25 25 26 26 26 25 24 23 22 22 23 23 23 22 21 21 21 20 21 21 18 16 16 17 18 17 14 11 11 13 13 13 12 12 12 12 12 12 13 13 14 15 16 16 16 16 17 17 18 18 19 19 21 23 24 24 24
18 18 18 18 17 17 15 14 13 11 10 8 6 5 2 1 2 3 4 6 8 9 10 11 12 14 16 18 21 23 23 23 23 24 24 24 24 24 24 25 24 22 21 20 19 18 17 16 14 14 16 16 16 15 13 11 10 12 12 12 12 11 11 11 11 12 13 14 14 15 15 16 16 16 16 17 17 18 19 20 22 23 23 23 23
10 11 12 12 12 11 10 10 9 8 7 7 8 7 5 3 1 2 4 6 8 9 10 11 12 13 15 16 17 19 20 20 20 21 22 22 23 23 24 24 22 20 19 19 18 16 15 14 14 16 17 16 15 14 12 11 11 11 10 10 9 9 9 10 11 13 14 14 15 15 15 16 16 16 16 16 17 19 20 20 20 20 20 21 22
5 5 5 5 5 4 3 3 3 2 2 2 4 5 6 6 5 2 1 4 7 10 12 12 12 13 14 16 17 17 18 19 19 20 20 20 20 20 21 21 19 18 17 18 17 16 15 15 15 17 17 16 14 13 12 11 11 10 9 9 8 8 9 10 12 13 14 14 15 14 14 14 14 15 16 17 18 18 17 16 16 17 18 20 22
1 2 1 2 2 3 4 3 4 5 5 6 5 5 5 6 6 6 6 5 6 8 12 14 15 14 14 15 16 17 19 19 20 19 19 18 19 19 18 18 17 17 19 18 17 17 16 15 16 17 16 16 15 13 12 12 11 10 9 9 9 9 9 10 10 11 11 12 12 12 12 13 14 16 17 16 14 13 13 13 15 16 18 20 21
6 7 7 8 8 9 8 7 7 8 9 9 9 8 9 10 10 11 11 11 10 9 10 12 15 17 17 17 16 16 17 19 19 19 18 17 18 18 17 16 17 20 20 19 18 18 16 15 15 17 16 16 15 14 13 12 11 10 10 10 10 10 10 10 10 10 10 10 11 12 13 14 16 17 15 13 12 12 13 14 15 17 18 19 19
9 10 11 12 12 13 13 12 11 11 12 13 13 13 13 13 13 13 13 14 14 14 14 14 15 16 18 19 19 18 18 18 18 19 18 17 17 17 16 17 20 21 20 20 20 19 17 17 18 19 18 17 16 14 13 12 11 11 11 11 11 11 11 12 12 12 12 13 13 14 15 16 16 16 14 13 13 13 13 14 15 16 17 19 20
11 12 14 14 15 16 16 16 16 16 17 18 18 18 18 16 15 15 15 16 16 16 17 17 18 17 17 18 21 21 21 21 20 19 19 17 17 17 17 18 22 21 19 21 23 21 19 19 21 21 20 18 16 15 14 13 12 12 12 12 13 13 13 13 14 14 14 14 14 15 15 14 13 13 14 13 12 12 12 13 14 15 17 20 22
13 14 15 15 16 17 17 18 18 18 18 19 19 20 19 17 16 15 14 14 15 16 17 18 20 21 20 20 21 21 22 25 24 21 20 20 18 18 18 20 23 21 20 23 25 24 21 19 20 22 21 19 17 16 15 13 13 13 14 14 14 15 16 15 16 16 16 15 15 14 12 11 10 11 12 12 12 12 13 14 16 17 19 22 23
12 14 14 15 16 17 18 17 18 18 18 18 19 20 19 19 18 16 14 13 13 14 16 17 20 22 23 22 23 23 23 26 27 24 21 21 21 21 21 22 24 23 22 23 25 26 25 21 19 20 20 19 17 16 14 12 12 13 15 16 16 17 17 17 17 17 16 16 14 11 10 9 10 10 12 13 14 15 16 17 19 21 23 24 24
13 14 15 16 16 17 18 18 18 18 17 17 17 18 18 18 18 17 16 16 15 15 15 15 18 21 22 23 24 26 25 24 25 25 23 22 21 22 23 24 26 26 24 23 22 23 25 21 18 19 19 17 15 14 13 11 11 13 15 17 18 18 18 17 17 16 15 15 14 12 11 11 11 12 14 16 17 18 19 21 23 24 25 25 25
14 15 15 16 17 17 17 17 17 17 16 16 15 14 14 15 16 16 16 15 15 15 15 15 16 18 20 20 20 24 26 25 24 25 26 24 23 24 25 26 28 29 28 25 21 20 24 23 21 20 19 16 14 13 13 12 12 13 15 17 18 18 17 16 14 13 12 13 13 13 13 13 14 15 17 18 21 22 23 24 25 26 26 27 27
15 16 16 16 16 15 15 15 15 15 15 15 14 14 13 13 14 14 14 14 15 15 15 15 15 16 17 16 14 16 21 25 26 27 26 25 25 27 26 27 30 30 30 29 24 22 25 27 24 21 18 15 13 12 12 12 12 13 14 15 15 14 12 11 11 11 11 13 14 14 15 15 16 17 18 20 22 23 23 24 24 24 25 26 27
14 13 12 12 12 12 14 14 15 16 16 16 16 17 17 16 16 16 15 14 15 16 17 18 18 18 17 17 15 13 14 19 25 28 28 28 30 29 25 25 27 28 28 28 25 24 27 28 26 23 20 17 15 14 13 13 12 12 12 11 10 9 9 9 10 10 10 11 12 12 13 14 15 16 18 18 19 20 21 22 23 24 25 25 23
10 8 8 9 11 13 15 16 16 18 20 20 19 18 18 19 20 21 20 17 16 17 18 19 20 21 22 21 19 17 15 16 19 23 26 30 33 31 25 22 21 20 22 24 23 24 27 29 28 26 23 19 16 15 15 14 12 10 9 8 7 7 8 8 8 8 8 8 9 10 11 13 15 15 15 15 16 18 19 20 22 23 23 20 18
10 10 10 11 12 14 16 17 17 18 19 20 19 18 16 16 17 20 22 22 21 20 19 19 19 20 23 25 23 21 19 18 17 18 21 24 27 28 25 23 19 14 12 17 21 24 28 31 30 27 23 19 17 16 15 13 10 8 7 6 5 6 7 7 7 7 8 9 10 11 12 12 12 12 13 14 16 19 20 21 21 21 19 17 17
12 12 13 13 14 15 17 17 17 18 18 19 20 21 20 17 15 15 17 20 22 24 24 23 21 19 21 25 26 24 21 19 18 18 18 19 20 21 22 23 23 19 14 14 18 22 26 28 26 21 17 15 15 15 15 12 10 8 7 5 5 6 8 9 9 9 10 11 10 10 9 9 9 10 12 15 18 19 21 20 19 18 16 16 17
11 12 13 14 15 16 16 16 16 18 19 20 21 22 24 24 21 18 16 16 18 21 25 27 25 21 19 21 23 22 20 18 18 17 17 16 15 16 19 22 24 27 27 24 22 21 22 21 19 16 16 17 16 16 15 12 10 8 6 6 6 7 8 10 10 10 11 9 7 7 7 7 8 10 13 15 17 19 19 19 18 18 18 17 17
12 13 14 15 16 16 16 16 17 19 20 21 21 21 22 24 26 26 23 20 18 18 19 22 25 23 19 17 18 17 15 14 16 17 17 16 13 14 18 20 20 25 32 33 30 26 23 21 21 22 23 21 19 16 14 12 9 8 8 8 7 7 8 9 9 9 8 8 7 7 6 6 8 10 13 15 17 18 19 19 18 17 17 18 17
12 14 15 15 15 14 15 17 19 21 21 20 20 20 21 23 26 28 28 27 24 21 16 14 18 20 18 15 14 13 11 11 13 15 17 18 16 14 16 19 20 24 30 32 31 28 24 25 28 28 24 21 18 16 14 12 10 10 9 8 7 7 7 8 8 8 8 8 8 7 7 7 9 11 13 14 16 17 19 19 18 16 16 17 16
12 13 14 15 14 14 16 19 20 20 20 19 18 18 20 22 23 24 23 23 23 23 20 16 14 15 14 13 13 12 10 9 11 13 16 18 17 16 17 20 24 26 28 29 27 23 22 26 28 26 22 19 17 15 14 14 13 11 10 10 9 8 8 9 9 9 9 8 7 7 7 8 10 11 13 14 16 18 18 19 18 17 15 14 13
11 12 14 15 15 15 17 18 17 16 17 18 18 17 16 17 18 18 18 17 19 21 22 21 17 13 12 12 13 12 12 12 11 13 16 18 19 20 21 22 23 23 25 27 26 24 23 26 25 24 21 19 18 17 16 15 14 12 11 11 11 11 11 11 10 10 9 7 6 6 7 9 11 12 13 15 17 17 18 18 17 14 11 10 10
13 13 13 13 13 14 14 15 17 18 19 20 19 17 16 15 15 14 14 15 18 20 21 20 18 14 12 12 12 11 12 12 11 13 17 19 20 22 23 23 21 21 23 27 28 28 26 24 21 21 21 20 19 18 18 16 14 12 11 11 12 13 12 10 8 8 8 7 6 6 8 10 12 13 15 16 17 17 17 17 14 9 7 7 10
17 17 15 13 12 12 12 15 17 19 20 20 19 18 17 15 14 13 13 14 15 15 16 15 14 12 12 14 14 12 9 8 9 12 16 19 20 23 26 26 24 24 26 29 30 28 25 22 22 23 22 21 19 18 17 14 12 12 11 12 12 11 9 7 7 8 9 7 6 8 9 11 13 14 15 15 15 14 14 11 8 7 7 9 11
17 18 17 13 11 11 12 13 15 18 19 19 17 16 16 15 14 13 13 13 13 12 11 11 11 10 12 14 14 11 9 8 9 11 14 17 20 24 27 27 26 26 28 29 26 22 22 24 25 24 22 19 18 17 14 12 12 12 12 12 12 10 9 9 9 10 10 8 8 9 10 12 13 14 13 12 10 8 8 7 8 8 9 10 10
17 18 16 12 10 10 11 12 14 16 17 17 16 15 14 14 13 12 12 13 12 11 9 9 10 10 11 12 11 10 9 9 9 9 10 13 17 22 24 24 24 25 27 27 24 22 25 26 26 23 20 18 16 14 12 12 13 13 13 13 13 12 12 11 10 10 10 10 9 10 10 12 13 13 12 11 9 8 8 8 8 9 10 10 10
18 18 13 9 9 9 10 12 14 14 14 14 14 14 14 13 12 12 14 15 14 12 11 11 9 8 8 6 3 4 5 6 5 4 5 6 8 12 15 16 15 17 20 23 24 26 27 27 24 22 20 17 15 14 14 14 14 14 13 13 13 14 13 12 11 11 10 9 9 9 10 11 13 12 10 9 9 9 7 7 8 10 11 10 9
18 16 11 8 8 9 10 11 12 13 14 14 14 15 15 12 11 13 15 16 14 12 11 10 8 7 8 7 5 3 1 1 2 5 8 10 9 10 11 11 12 15 18 22 26 28 28 26 23 21 18 16 15 16 17 16 14 14 14 14 14 14 13 12 12 11 10 8 8 8 9 10 11 9 6 6 7 6 6 8 9 10 10 9 10
17 14 10 7 6 7 10 11 11 11 13 14 14 14 13 11 11 13 14 14 12 10 9 8 8 8 10 10 9 6 5 7 9 11 13 14 13 14 15 16 18 22 24 25 27 28 27 24 21 18 16 17 17 17 16 15 14 14 14 14 14 13 12 12 11 10 9 7 7 7 8 9 9 7 5 5 5 5 7 8 11 12 12 11 11
14 13 10 7 4 4 6 9 10 9 10 11 12 12 11 9 10 12 12 12 12 10 10 10 10 10 10 10 9 8 9 12 12 12 12 12 11 13 16 18 21 24 24 23 22 21 19 18 17 17 17 17 17 16 14 14 13 13 12 11 10 9 9 8 8 7 6 5 5 6 7 7 7 5 4 4 5 6 8 10 12 12 11 11 11
13 12 10 8 5 3 2 5 7 8 9 10 11 11 10 10 10 10 11 13 13 12 12 12 10 9 9 10 10 11 13 13 12 11 11 12 13 15 17 18 19 21 20 18 17 16 15 15 16 16 16 16 14 13 12 10 9 9 8 8 6 6 5 5 5 4 4 4 4 5 5 5 4 2 3 3 5 8 9 10 11 11 10 9 10
13 13 10 9 7 5 4 5 6 7 10 12 12 10 9 8 9 10 10 11 12 13 13 12 10 10 11 12 13 14 14 13 13 13 14 16 17 18 19 19 18 18 17 16 15 14 14 15 14 14 13 12 11 10 10 8 6 6 5 4 3 3 2 3 3 3 2 2 3 3 3 4 4 1 2 4 6 8 9 9 11 9 8 10 11
13 14 13 10 7 6 7 7 8 8 10 12 13 11 8 6 6 7 9 11 11 12 14 14 12 11 12 13 14 15 14 14 14 14 16 17 18 17 17 17 16 16 16 15 14 14 13 13 11 10 9 7 6 7 8 6 5 5 4 3 3 3 3 3 3 3 2 1 2 3 3 3 3 3 5 6 7 7 8 9 10 8 8 11 13
11 14 14 12 10 8 8 9 9 9 10 11 13 14 11 8 5 6 8 10 10 11 13 13 12 11 10 11 11 12 12 12 12 13 14 15 14 13 12 12 12 12 13 13 12 11 10 9 8 7 6 5 6 7 7 6 5 6 6 6 6 6 7 7 6 6 6 5 5 5 4 5 5 7 8 7 6 6 7 8 9 8 9 12 13
8 11 13 13 13 11 10 10 9 8 9 10 13 14 14 12 9 7 7 8 9 9 10 10 10 10 9 9 9 9 10 10 11 11 11 11 10 9 8 7 8 9 9 9 9 8 6 5 4 4 5 6 7 7 6 6 7 8 8 7 7 7 8 8 8 7 7 7 7 6 6 7 8 8 8 7 6 6 5 5 7 8 9 10 11
7 10 11 11 12 12 10 8 8 7 7 9 12 14 14 14 12 10 8 8 9 9 9 8 8 9 10 9 8 7 8 9 9 9 9 8 8 7 7 6 7 7 7 7 6 5 4 3 4 6 6 6 5 6 7 8 8 8 7 6 6 6 6 5 5 5 6 6 6 6 6 7 8 9 9 9 8 7 6 5 6 9 9 9 10
6 9 9 8 9 10 10 8 7 7 8 10 11 13 14 14 13 11 9 9 9 10 10 10 9 9 10 10 8 7 6 7 8 8 8 8 7 6 6 6 7 7 6 5 5 4 4 4 5 6 6 5 5 6 7 7 7 6 6 5 4 4 3 3 3 3 4 5 5 5 5 7 7 9 10 10 9 7 6 6 6 8 9 9 9
Wind_Direction
201 201 202 202 201 198 192 187 186 189 190 189 184 179 183 193 191 186 195 191 164 156 154 141 136 136 137 139 138 135 133 132 130 129 128 126 123 121 121 123 121 118 116 116 118 119 111 110 117 121 124 128 123 116 120 118 113 120 121 128 147 158 160 169 163 159 165 176 181 179 175 179 156 78 32 30 46 55 50 40 33 25 12 5 2
201 201 202 202 200 196 194 189 188 192 195 193 188 184 190 197 191 187 194 188 164 155 148 142 140 139 141 144 144 143 142 140 137 136 136 133 130 130 130 127 123 121 122 119 119 122 121 124 131 132 132 133 130 128 133 133 125 125 126 129 137 136 129 147 159 165 168 166 166 173 183 200 207 144 57 41 37 47 56 47 39 37 22 6 360
200 198 200 203 203 200 197 194 193 195 196 194 189 187 195 201 192 185 195 189 166 153 147 147 146 145 149 150 150 152 151 149 144 142 145 145 144 145 141 131 126 130 134 132 126 124 127 138 148 153 153 146 141 143 147 149 146 138 133 136 144 142 135 136 141 156 165 162 163 170 181 199 208 148 80 42 19 32 67 54 21 20 75 348 345
199 198 197 199 202 201 198 194 192 195 197 193 191 195 204 207 194 185 198 194 170 154 151 155 155 154 160 163 162 163 163 162 159 155 158 161 161 163 159 156 153 148 150 157 159 134 116 139 155 161 168 167 161 160 161 162 167 169 160 155 159 160 149 135 119 140 160 164 167 172 179 188 190 184 184 102 79 140 144 147 237 255 269 324 333
202 199 197 197 198 198 196 190 180 183 194 194 197 206 213 212 197 187 196 191 171 162 164 172 169 164 171 178 178 179 179 181 182 178 177 177 180 184 180 178 172 164 168 182 202 220 204 167 174 169 175 183 184 182 180 176 180 187 180 168 167 168 153 143 139 152 169 172 172 176 177 178 189 219 233 236 198 199 201 201 217 242 264 296 316
206 205 206 205 203 205 202 190 178 177 190 202 207 210 214 210 200 193 194 187 172 169 177 191 183 174 181 190 193 202 204 202 203 202 199 200 204 206 196 184 181 178 181 190 201 211 216 217 218 200 187 190 197 198 193 188 189 193 189 178 176 171 159 156 154 156 174 179 171 174 176 177 201 210 203 232 245 229 225 227 237 249 257 275 294
201 209 214 210 208 212 204 191 188 186 191 204 210 211 210 203 200 201 197 189 179 176 187 207 197 184 190 196 201 216 228 228 226 218 215 223 222 213 205 198 201 205 203 202 205 209 213 214 215 222 223 209 205 206 198 193 195 196 189 182 180 176 170 174 168 153 160 173 173 181 186 193 218 210 195 216 238 236 239 247 256 262 266 279 291
201 204 207 201 202 205 193 188 196 197 198 206 209 210 210 201 197 197 192 189 187 184 193 210 203 192 197 204 206 218 234 241 231 217 217 226 220 208 213 227 236 234 228 227 230 233 237 233 225 228 234 227 218 211 204 205 211 209 202 194 190 189 191 201 194 174 165 169 179 202 211 208 217 222 220 226 232 236 243 251 259 266 273 285 297
199 199 195 193 198 203 196 194 200 203 206 209 207 208 207 199 192 188 186 190 195 195 200 211 208 199 202 207 208 216 231 235 228 221 225 233 229 219 226 242 248 244 243 249 254 257 260 258 251 247 241 234 228 222 217 221 223 217 214 214 215 220 231 229 211 197 188 182 183 199 211 208 211 221 231 237 241 248 256 261 267 276 286 296 303
185 199 191 183 188 196 197 198 203 206 209 211 210 207 200 195 192 190 191 194 199 204 210 216 215 209 208 212 212 217 227 231 227 226 234 242 240 235 237 243 242 242 247 254 257 259 260 261 263 260 250 240 235 228 223 225 223 216 214 219 224 231 238 236 220 208 203 199 195 200 209 213 212 217 228 238 246 254 263 271 278 286 294 298 300
125 135 152 164 177 184 189 195 200 205 208 210 210 205 195 195 197 195 198 201 204 210 217 221 220 217 217 219 220 222 228 230 231 234 242 248 247 244 246 248 247 249 255 260 264 263 261 263 265 257 245 243 241 230 224 226 226 222 218 220 224 227 228 227 222 216 212 212 214 216 219 221 222 227 238 248 254 262 272 281 287 291 295 298 299
86 84 96 118 135 146 165 179 182 190 197 199 202 199 194 198 202 202 205 209 211 214 220 226 228 228 227 227 228 231 234 238 241 245 249 252 252 253 254 253 253 256 260 264 267 266 266 268 266 252 241 242 241 232 226 230 234 232 226 224 223 222 221 222 222 223 222 223 226 229 231 232 234 240 248 255 263 273 280 285 288 290 294 298 301
79 74 80 93 99 102 121 146 155 164 171 177 188 195 195 199 206 209 212 216 220 224 226 230 235 237 236 235 236 237 240 244 248 250 251 252 255 256 255 253 255 258 261 263 265 267 269 270 263 251 243 239 234 228 225 229 236 235 230 227 224 219 220 223 226 231 235 237 239 240 242 245 248 253 259 265 273 280 283 286 288 291 295 299 303
92 89 88 89 87 86 90 103 115 117 113 130 160 181 187 196 206 212 217 221 225 230 232 235 239 240 241 242 243 245 248 251 253 254 253 253 256 259 259 258 259 261 261 262 263 266 269 267 258 248 241 234 226 223 223 226 231 230 224 221 222 220 220 224 230 237 243 250 253 253 252 255 259 262 265 268 274 280 285 290 294 298 301 305 308
97 96 95 94 92 90 90 92 93 90 79 67 63 78 123 173 203 221 230 233 234 235 236 239 242 243 244 247 249 251 252 253 253 255 254 256 260 264 265 265 265 265 265 266 264 263 263 259 249 237 231 226 221 220 220 221 225 224 219 218 220 222 223 226 232 238 244 250 255 257 258 261 263 265 267 272 279 287 293 298 302 305 307 309 310
93 94 95 94 94 95 96 98 99 105 109 99 84 80 76 6 339 301 272 260 255 253 251 249 249 249 250 251 252 253 253 253 254 253 253 256 260 264 266 266 265 266 267 265 258 250 246 241 231 222 220 219 215 214 213 214 216 215 214 215 219 224 229 233 237 239 242 245 247 251 256 259 263 267 273 282 289 295 299 303 305 306 306 307 308
93 94 95 92 89 90 95 98 98 106 121 122 114 112 116 116 43 342 307 289 280 273 270 265 260 258 257 256 255 253 252 253 255 255 255 256 258 260 261 260 262 262 258 251 243 233 227 224 217 212 210 208 210 213 212 211 213 213 214 218 223 230 234 238 243 245 246 246 247 250 255 261 269 277 285 292 296 299 302 303 303 302 304 306 309
126 126 114 97 81 66 69 100 122 137 159 164 146 138 141 140 131 133 269 297 295 286 281 278 272 268 264 261 261 259 257 256 257 261 263 261 260 259 257 257 258 250 237 229 225 219 217 216 210 205 203 203 206 214 218 218 218 223 230 232 232 234 235 238 243 245 246 249 252 256 262 271 280 289 294 298 298 299 301 300 300 302 303 306 307
269 252 249 263 280 300 305 280 248 247 257 257 247 234 217 200 196 207 220 244 269 279 282 281 279 275 270 266 265 264 263 262 262 264 266 263 261 259 255 253 245 229 217 214 214 215 218 218 210 206 209 209 208 214 224 229 231 236 241 239 232 229 232 237 241 242 246 252 256 263 271 278 285 292 297 298 296 297 298 298 297 297 297 299 301
302 299 296 291 290 290 290 282 265 256 259 263 262 262 261 255 249 242 238 240 242 246 258 271 278 279 275 270 267 265 266 266 266 264 262 258 255 253 248 238 222 211 210 211 213 217 220 219 217 217 216 210 209 218 228 232 236 240 242 244 240 235 238 246 251 252 254 261 267 273 277 282 289 295 296 292 290 291 291 290 289 291 294 299 301
290 291 291 290 290 289 289 285 277 268 266 268 269 271 275 277 274 269 263 258 253 246 241 248 264 275 275 272 269 266 266 267 268 264 259 255 252 246 236 219 210 212 216 216 217 222 221 217 217 218 213 205 208 219 226 228 233 236 239 244 247 247 248 252 260 264 265 267 270 273 279 288 294 296 292 287 287 289 289 290 292 296 299 301 300
295 293 291 289 290 290 289 288 285 280 278 277 277 277 278 277 276 276 274 272 268 259 249 246 253 262 269 272 271 270 268 266 264 260 255 253 249 241 229 213 209 217 224 217 215 221 223 218 217 216 211 207 211 215 217 219 222 225 231 238 243 247 248 250 258 264 265 267 270 274 283 291 292 286 283 284 288 289 292 294 296 297 297 297 298
303 300 297 296 295 293 291 290 288 287 285 283 281 280 279 276 272 270 274 279 280 275 265 257 256 259 261 264 270 276 272 260 252 250 253 255 249 237 227 218 216 223 227 219 216 219 220 213 211 214 214 212 212 211 209 210 211 214 223 229 233 237 241 244 249 254 260 269 276 281 286 284 272 268 274 282 287 290 292 292 293 294 295 295 296
304 302 299 297 294 292 292 292 291 291 290 285 280 278 277 276 272 269 270 274 280 282 278 270 265 264 264 264 270 276 270 254 243 241 246 253 250 240 230 224 222 226 229 225 223 226 227 217 206 208 211 208 207 207 205 205 207 212 219 224 226 230 234 239 244 249 257 266 272 273 270 263 256 257 262 269 278 284 287 289 289 289 289 289 290
304 303 302 299 296 292 291 291 291 292 293 293 291 289 285 282 278 276 275 275 277 283 284 281 276 273 271 273 276 278 273 259 247 241 241 244 245 240 233 229 227 227 230 230 230 234 236 227 207 201 205 207 209 213 212 210 211 214 220 224 227 231 237 243 249 254 257 258 258 257 255 255 257 258 259 263 269 274 278 280 280 281 282 282 283
301 302 302 300 297 296 298 298 295 292 290 290 292 293 291 289 283 278 275 275 276 281 286 286 282 278 275 276 281 283 277 263 247 237 234 235 239 239 236 232 228 227 229 233 233 230 229 223 210 205 208 211 215 219 219 217 216 216 221 227 232 238 245 251 254 253 248 247 249 250 251 253 255 258 263 268 272 275 276 277 278 279 280 281 283
298 299 300 301 303 306 309 307 301 296 291 286 283 280 277 279 280 278 278 276 271 272 276 279 279 278 275 273 280 290 284 270 256 245 236 234 237 239 237 234 230 227 227 230 229 222 219 218 215 214 216 216 216 217 217 216 216 215 221 230 237 243 246 247 244 240 240 245 251 254 256 257 259 265 272 275 278 280 282 283 285 287 289 292 294
302 307 313 321 326 323 316 311 306 300 293 287 283 280 277 275 273 274 279 282 282 282 280 277 277 280 279 275 277 286 286 275 266 261 257 253 249 242 232 230 233 232 230 229 227 219 215 213 212 213 216 216 218 219 217 215 215 219 229 237 239 236 232 231 238 245 251 256 258 259 261 266 273 277 279 280 283 286 288 291 293 295 296 297 300
315 326 333 335 332 323 318 317 315 310 304 298 294 289 286 282 278 274 270 269 275 283 284 280 280 280 278 276 277 280 283 280 272 265 262 262 262 256 242 231 232 237 235 231 227 218 213 210 210 211 212 212 216 219 217 217 219 226 238 241 232 226 231 241 253 261 267 270 272 273 277 281 284 284 285 289 294 299 301 302 301 300 301 303 308
343 347 347 342 334 326 324 325 323 321 319 318 315 310 301 294 288 283 278 268 261 264 270 275 280 280 275 272 271 272 277 282 282 272 261 258 263 266 257 240 233 238 235 227 224 218 210 207 207 205 202 206 216 219 217 219 221 220 225 235 239 241 252 262 267 270 277 282 281 280 282 283 283 285 293 302 308 311 311 309 307 307 309 312 313
353 353 352 349 341 331 326 324 323 324 325 325 325 323 318 312 303 297 294 284 269 260 257 260 268 275 274 271 268 267 269 274 278 276 268 259 259 264 258 242 233 232 230 223 220 216 210 208 206 202 201 211 220 221 220 222 219 213 218 235 240 240 249 260 265 270 274 275 276 280 281 279 283 292 302 308 311 312 311 311 312 314 317 318 314
348 350 346 340 334 329 327 324 324 325 325 323 323 322 321 318 314 310 307 300 286 271 260 256 258 263 268 270 268 265 264 266 270 272 268 262 258 256 252 245 236 231 227 223 221 222 225 222 218 220 229 229 221 217 222 226 223 217 223 235 230 225 236 247 252 259 267 273 286 298 291 284 291 300 303 306 310 314 317 320 323 323 326 329 325
342 344 338 329 325 325 326 326 325 324 322 320 320 321 319 316 314 312 311 310 305 292 274 260 256 257 262 269 268 264 261 262 265 265 262 260 258 251 246 247 242 231 224 222 223 226 231 230 226 226 227 221 214 215 221 223 220 220 229 239 236 226 230 238 244 255 272 291 307 304 288 283 294 298 302 308 315 319 321 322 322 322 323 324 324
332 331 329 328 330 330 329 328 325 321 318 316 314 313 311 308 307 307 309 310 309 304 293 274 260 256 259 262 261 261 267 269 263 257 253 254 256 250 239 237 235 229 226 230 231 227 224 227 227 221 210 204 207 215 213 206 208 218 229 233 222 210 219 234 247 263 279 293 296 284 270 275 288 294 301 312 317 317 317 315 314 315 317 318 323
321 323 325 331 338 335 328 325 322 317 316 314 309 304 302 302 302 304 307 310 311 307 303 296 281 267 263 266 264 258 260 268 263 251 243 242 246 246 236 227 224 224 227 231 226 214 214 225 222 209 199 201 207 205 199 199 208 219 227 224 210 203 216 235 251 268 279 284 276 263 263 279 293 300 306 310 309 308 308 308 310 315 319 321 325
325 325 326 328 332 329 327 333 338 339 337 332 324 315 311 311 313 313 313 313 310 305 302 301 297 282 269 278 284 272 258 258 259 251 239 232 232 236 236 231 228 228 230 227 213 200 208 220 212 196 195 201 198 193 196 204 212 218 221 220 215 214 224 239 253 266 274 271 259 259 277 296 305 311 311 307 303 302 302 303 308 315 323 326 330
359 352 342 336 336 335 342 358 8 8 1 353 345 337 330 328 329 327 321 312 305 302 302 305 304 292 274 279 294 287 265 255 253 248 237 226 224 231 237 238 236 234 229 221 207 200 206 211 198 187 190 190 186 193 202 208 214 218 215 212 214 220 230 244 256 263 263 261 266 287 307 313 314 316 312 305 301 298 298 301 309 321 337 341 340
5 4 357 348 344 347 3 17 17 10 4 359 353 346 342 340 339 336 331 325 319 316 313 310 307 299 285 287 300 304 284 260 248 240 229 219 222 231 233 232 233 232 225 215 207 202 201 195 185 186 191 189 190 200 206 207 212 214 207 207 215 224 232 234 235 245 255 267 288 309 317 317 316 315 311 305 299 296 299 311 333 352 356 352 346
1 3 357 352 356 11 22 21 12 7 7 6 2 359 358 357 353 347 343 339 335 333 329 318 309 299 288 288 299 309 298 271 257 246 230 220 222 225 223 223 227 225 217 209 203 194 185 179 179 187 194 192 193 201 205 204 202 199 199 209 216 217 218 216 217 232 254 277 298 307 310 313 315 317 317 317 319 322 334 357 9 1 350 346 343
0 360 355 359 16 31 29 15 8 10 13 13 15 18 17 13 7 3 360 356 349 342 338 332 321 308 297 290 288 290 288 279 270 255 233 220 217 215 215 220 223 216 205 198 188 175 171 173 178 186 190 188 189 197 198 194 193 196 203 210 207 201 205 212 222 240 261 281 294 298 305 312 317 321 327 340 359 15 19 19 13 358 349 344 340
4 0 356 8 27 31 24 18 17 21 20 15 16 21 23 22 22 23 22 16 8 360 357 356 349 337 332 324 275 250 273 289 278 241 187 173 187 199 206 212 209 196 188 182 172 165 168 173 177 179 180 180 185 192 191 188 194 203 208 206 201 201 207 219 236 254 269 280 288 296 306 314 320 327 342 8 30 35 26 16 8 359 357 356 354
8 1 360 20 34 34 33 31 30 31 27 19 15 16 18 20 22 23 24 23 18 13 13 17 18 14 19 36 66 99 142 221 200 157 140 136 143 160 172 175 164 153 154 160 162 163 166 168 168 169 172 177 185 191 191 192 200 205 205 204 208 215 226 239 252 263 271 279 286 296 308 316 324 337 9 48 52 34 17 16 18 16 17 16 11
6 1 7 28 44 46 42 39 39 38 30 22 18 18 18 18 14 13 20 32 38 37 39 45 46 40 35 38 46 62 115 146 145 139 140 143 146 148 150 152 152 148 146 148 155 161 164 165 166 170 176 181 186 190 193 198 203 203 205 212 222 233 243 250 256 261 267 275 284 296 309 319 327 348 34 69 59 34 27 31 33 31 27 20 11
4 2 11 26 50 67 47 36 39 38 21 12 20 26 25 23 21 22 37 58 68 69 67 63 55 46 42 44 55 85 124 142 147 150 154 156 156 155 152 152 157 162 161 158 159 164 170 174 178 182 185 187 192 198 203 206 207 207 213 224 234 240 245 248 250 253 258 266 277 293 309 319 330 1 53 68 52 44 45 43 37 30 23 17 11
8 8 14 23 36 64 51 23 21 14 357 357 18 34 34 30 36 48 67 79 79 75 72 68 63 59 62 73 92 113 129 138 145 153 156 151 148 149 147 146 151 160 162 158 157 165 177 184 185 186 187 188 193 198 200 202 206 213 221 231 237 238 240 241 239 237 240 252 271 290 310 322 331 6 76 78 61 59 56 44 32 23 14 13 13
10 8 14 23 25 31 42 29 12 3 360 5 22 40 46 42 45 62 83 89 83 78 80 83 86 87 88 97 112 125 132 136 140 146 147 143 139 139 140 141 144 147 147 145 148 157 170 178 182 186 188 188 192 198 199 200 206 209 210 214 222 226 226 212 198 197 213 249 283 305 325 331 326 338 90 79 68 68 61 41 28 20 11 10 13
6 3 9 20 23 32 51 53 41 28 21 21 31 47 58 55 52 70 90 98 93 88 90 99 108 110 107 112 123 131 136 140 144 147 149 146 141 140 142 146 149 150 150 150 150 154 162 172 182 192 194 191 194 200 199 198 195 184 167 150 134 118 117 127 132 130 122 82 28 13 12 3 5 48 71 67 65 71 64 43 29 21 12 12 12
1 1 8 18 24 36 59 70 62 50 41 41 49 58 63 64 68 79 92 101 103 97 93 99 109 118 120 122 128 134 139 142 145 147 148 145 143 143 146 151 154 154 152 150 148 151 161 174 192 204 198 171 159 166 172 173 165 151 135 121 108 99 99 104 103 97 90 78 62 50 50 50 51 56 57 51 51 65 65 46 31 25 20 16 14
359 360 8 14 18 29 55 77 78 63 50 52 61 67 70 73 82 93 100 105 111 112 107 103 107 116 123 128 133 137 140 141 141 141 141 137 134 135 139 145 150 152 148 143 141 146 157 172 185 184 166 149 146 149 150 149 145 137 129 120 110 101 98 97 93 88 80 70 62 59 61 60 54 47 41 34 37 52 59 46 33 31 26 19 17
6 2 7 11 9 14 35 64 80 78 69 63 65 69 70 72 81 98 113 118 121 128 132 131 128 129 130 130 131 133 136 136 133 130 129 125 123 123 126 132 140 149 151 149 151 165 178 167 144 145 148 147 144 141 140 140 140 138 133 126 115 105 100 93 87 82 72 61 58 59 60 58 53 44 35 30 30 35 41 42 37 32 24 18 18
7 3 7 11 10 10 16 26 46 72 85 79 70 66 65 65 71 88 109 121 122 126 134 141 144 142 140 136 133 132 132 131 130 128 124 120 117 115 119 127 137 147 156 162 174 190 193 167 147 148 154 150 141 138 138 139 140 139 135 125 115 109 104 90 77 70 60 50 45 42 45 49 46 37 33 32 28 26 33 43 42 33 24 20 18
Height
1514 1517 1519 1521 1523 1525 1527 1529 1531 1532 1533 1534 1535 1536 1537 1538 1539 1540 1541 1542 1543 1544 1545 1547 1548 1550 1551 1552 1554 1555 1556 1558 1559 1560 1562 1563 1564 1565 1566 1566 1567 1567 1567 1567 1568 1568 1569 1569 1569 1569 1569 1570 1569 1569 1569 1569 1569 1569 1569 1570 1571 1572 1572 1572 1572 1573 1574 1575 1574 1574 1574 1574 1575 1576 1576 1575 1574 1574 1573 1573 1573 1573 1573 1572 1571
1514 1517 1520 1522 1524 1526 1528 1530 1531 1532 1534 1535 1535 1536 1537 1538 1539 1540 1541 1542 1543 1544 1545 1547 1548 1550 1551 1553 1554 1556 1557 1558 1559 1561 1562 1563 1564 1565 1566 1567 1567 1567 1567 1567 1567 1568 1568 1569 1569 1570 1570 1570 1570 1569 1569 1569 1570 1570 1570 1571 1571 1572 1572 1572 1573 1573 1573 1574 1575 1574 1574 1575 1575 1575 1575 1575 1574 1573 1573 1572 1572 1572 1572 1571 1571
1515 1518 1520 1522 1525 1526 1528 1530 1531 1532 1534 1535 1536 1537 1538 1538 1539 1541 1541 1542 1543 1545 1546 1547 1549 1550 1551 1553 1554 1556 1557 1558 1560 1561 1562 1564 1565 1566 1567 1567 1567 1567 1567 1566 1567 1567 1567 1568 1569 1569 1570 1570 1570 1569 1569 1569 1570 1570 1570 1571 1571 1571 1572 1572 1572 1573 1573 1573 1574 1574 1574 1574 1575 1575 1575 1575 1574 1573 1573 1572 1571 1571 1571 1570 1570
1515 1517 1519 1522 1525 1527 1529 1530 1532 1534 1536 1537 1538 1539 1539 1539 1540 1541 1542 1543 1544 1545 1546 1547 1549 1550 1551 1553 1554 1556 1557 1558 1559 1561 1562 1564 1565 1566 1566 1567 1567 1566 1566 1566 1566 1566 1566 1567 1568 1568 1569 1569 1569 1568 1568 1569 1569 1569 1570 1570 1570 1570 1571 1572 1572 1572 1572 1573 1574 1574 1574 1574 1574 1574 1574 1575 1574 1573 1573 1572 1571 1570 1570 1569 1569
1516 1517 1519 1521 1522 1525 1527 1530 1533 1536 1537 1538 1538 1539 1540 1540 1541 1542 1543 1543 1544 1545 1546 1548 1549 1550 1551 1552 1554 1555 1556 1558 1559 1560 1561 1563 1564 1565 1565 1566 1566 1565 1565 1565 1565 1565 1565 1566 1566 1567 1567 1568 1567 1567 1567 1567 1568 1568 1569 1569 1570 1570 1570 1571 1571 1572 1572 1572 1573 1574 1574 1574 1574 1574 1574 1574 1573 1573 1572 1572 1572 1571 1570 1569 1569
1517 1518 1520 1521 1522 1525 1528 1532 1535 1537 1538 1538 1538 1539 1540 1541 1542 1543 1543 1544 1545 1545 1547 1548 1549 1550 1551 1552 1553 1554 1555 1557 1558 1559 1561 1562 1562 1563 1564 1564 1564 1564 1564 1564 1564 1564 1564 1564 1564 1565 1566 1566 1566 1566 1566 1567 1567 1567 1568 1569 1569 1569 1570 1570 1570 1571 1572 1572 1573 1573 1574 1574 1574 1574 1574 1573 1572 1572 1572 1572 1572 1571 1570 1570 1569
1518 1520 1521 1522 1525 1527 1530 1534 1536 1536 1536 1537 1537 1538 1539 1540 1542 1543 1544 1544 1545 1546 1546 1547 1548 1549 1550 1552 1553 1553 1554 1556 1557 1558 1560 1561 1561 1562 1562 1563 1563 1563 1563 1563 1563 1563 1564 1563 1563 1563 1564 1564 1565 1565 1566 1566 1567 1567 1568 1568 1569 1569 1570 1570 1570 1570 1571 1571 1572 1572 1573 1573 1573 1573 1573 1572 1572 1571 1571 1571 1571 1570 1570 1569 1568
1519 1521 1522 1524 1526 1527 1530 1533 1535 1535 1535 1536 1537 1538 1539 1540 1541 1543 1544 1544 1545 1546 1546 1547 1548 1549 1550 1551 1552 1552 1553 1555 1556 1557 1558 1559 1560 1560 1560 1561 1562 1562 1562 1562 1561 1562 1562 1562 1562 1562 1562 1562 1563 1563 1564 1564 1565 1566 1566 1567 1568 1569 1569 1569 1569 1569 1569 1569 1570 1571 1571 1572 1572 1571 1571 1571 1571 1570 1570 1570 1569 1569 1568 1568 1567
1520 1521 1522 1524 1526 1527 1530 1532 1533 1534 1535 1535 1536 1537 1538 1539 1541 1542 1543 1544 1545 1546 1546 1547 1547 1548 1549 1550 1551 1552 1553 1553 1554 1556 1557 1557 1558 1558 1558 1559 1560 1560 1560 1560 1560 1560 1560 1561 1560 1560 1560 1560 1560 1561 1562 1563 1563 1563 1564 1565 1566 1567 1568 1568 1568 1568 1568 1567 1568 1569 1569 1570 1570 1570 1570 1569 1569 1569 1568 1568 1568 1567 1566 1566 1565
1521 1522 1523 1525 1526 1527 1529 1531 1533 1534 1535 1536 1536 1537 1538 1539 1540 1542 1543 1543 1544 1545 1545 1546 1546 1547 1548 1548 1550 1551 1552 1553 1553 1554 1555 1555 1556 1556 1556 1557 1557 1558 1558 1558 1558 1558 1558 1558 1558 1558 1558 1557 1558 1558 1559 1560 1561 1562 1562 1563 1564 1565 1566 1566 1566 1566 1566 1566 1566 1567 1567 1567 1568 1568 1568 1568 1567 1567 1567 1566 1566 1565 1564 1563 1563
1523 1523 1524 1525 1527 1527 1529 1530 1532 1534 1535 1535 1536 1537 1539 1540 1540 1541 1542 1543 1543 1544 1544 1545 1545 1546 1546 1547 1548 1549 1550 1551 1552 1553 1553 1553 1554 1554 1554 1555 1555 1555 1556 1556 1556 1556 1556 1556 1555 1555 1555 1555 1555 1556 1556 1558 1559 1560 1560 1561 1562 1563 1564 1564 1565 1565 1565 1565 1565 1565 1565 1565 1566 1566 1566 1565 1565 1565 1565 1564 1564 1563 1562 1561 1560
1523 1524 1524 1526 1528 1529 1530 1532 1533 1535 1535 1535 1537 1538 1538 1539 1540 1541 1541 1542 1542 1543 1543 1544 1544 1545 1545 1546 1547 1548 1549 1550 1550 1551 1551 1551 1551 1551 1552 1552 1552 1552 1553 1553 1553 1553 1553 1553 1552 1552 1553 1553 1553 1553 1554 1555 1556 1557 1558 1559 1560 1561 1561 1562 1563 1564 1564 1564 1564 1564 1564 1564 1564 1564 1564 1564 1564 1564 1563 1562 1562 1561 1560 1559 1557
1524 1525 1526 1528 1530 1530 1532 1534 1535 1535 1535 1536 1537 1536 1536 1537 1539 1539 1540 1541 1542 1542 1542 1543 1543 1543 1544 1544 1545 1546 1547 1548 1548 1548 1549 1549 1549 1549 1549 1550 1549 1550 1550 1550 1550 1549 1549 1549 1549 1549 1550 1550 1551 1551 1552 1552 1553 1554 1555 1556 1557 1558 1559 1560 1560 1561 1562 1562 1563 1563 1563 1562 1563 1563 1563 1562 1562 1562 1561 1560 1560 1558 1558 1557 1555
1525 1527 1528 1530 1532 1532 1533 1534 1535 1534 1534 1534 1535 1535 1535 1536 1537 1538 1539 1540 1540 1540 1541 1541 1541 1541 1542 1542 1543 1543 1544 1545 1545 1546 1546 1546 1547 1546 1547 1547 1547 1547 1547 1547 1547 1547 1546 1546 1546 1546 1547 1547 1548 1549 1549 1550 1551 1552 1553 1554 1555 1556 1557 1557 1558 1559 1559 1560 1561 1561 1561 1561 1561 1561 1561 1560 1560 1559 1559 1558 1557 1556 1554 1554 1552
1525 1527 1528 1529 1531 1532 1533 1534 1534 1534 1534 1534 1535 1535 1535 1535 1536 1536 1537 1538 1538 1539 1539 1539 1539 1539 1539 1540 1540 1541 1541 1542 1543 1543 1543 1543 1544 1544 1544 1544 1544 1544 1544 1544 1544 1543 1543 1542 1542 1543 1544 1545 1546 1547 1548 1548 1548 1549 1550 1551 1553 1554 1555 1555 1556 1557 1558 1558 1558 1559 1559 1559 1559 1559 1558 1558 1557 1557 1556 1555 1554 1552 1551 1550 1549
1526 1527 1528 1528 1529 1530 1532 1533 1533 1533 1533 1533 1534 1534 1534 1535 1535 1536 1536 1537 1537 1537 1538 1538 1537 1537 1537 1537 1537 1537 1538 1539 1539 1540 1540 1541 1541 1541 1541 1541 1541 1541 1541 1540 1540 1540 1540 1539 1540 1541 1542 1543 1545 1545 1546 1546 1547 1547 1548 1549 1550 1551 1552 1553 1554 1555 1556 1556 1556 1557 1557 1557 1557 1557 1556 1556 1555 1554 1553 1553 1551 1550 1548 1547 1546
1528 1529 1529 1529 1530 1531 1531 1531 1532 1533 1533 1533 1533 1533 1533 1534 1534 1535 1536 1536 1536 1536 1536 1536 1536 1536 1536 1535 1535 1535 1535 1536 1536 1537 1537 1537 1538 1538 1538 1538 1538 1538 1538 1537 1537 1537 1537 1537 1538 1539 1540 1542 1543 1543 1544 1545 1546 1546 1546 1547 1548 1549 1550 1551 1552 1553 1553 1554 1554 1555 1555 1555 1555 1555 1554 1554 1553 1552 1551 1550 1549 1547 1546 1545 1544
1528 1529 1529 1530 1530 1531 1531 1531 1531 1532 1532 1532 1533 1532 1532 1533 1533 1533 1534 1534 1535 1535 1535 1535 1535 1535 1534 1534 1533 1533 1533 1533 1534 1534 1534 1534 1534 1534 1535 1535 1535 1535 1535 1534 1534 1535 1535 1536 1537 1538 1539 1540 1541 1542 1542 1543 1544 1545 1545 1546 1547 1548 1549 1549 1550 1551 1551 1552 1552 1553 1553 1553 1553 1553 1552 1551 1551 1550 1549 1548 1546 1545 1544 1543 1542
1528 1528 1529 1529 1529 1530 1530 1531 1531 1531 1531 1532 1532 1532 1532 1532 1532 1532 1532 1532 1532 1533 1533 1533 1533 1533 1533 1532 1532 1531 1531 1531 1531 1531 1531 1531 1531 1531 1532 1532 1532 1532 1532 1532 1532 1533 1534 1535 1536 1537 1538 1539 1539 1540 1541 1542 1543 1543 1544 1545 1546 1546 1547 1547 1548 1549 1550 1550 1551 1551 1551 1551 1551 1550 1550 1549 1548 1548 1547 1545 1544 1543 1542 1541 1540
1528 1528 1528 1528 1528 1528 1528 1529 1529 1529 1530 1530 1531 1531 1531 1531 1531 1531 1531 1531 1530 1530 1530 1531 1531 1531 1531 1531 1531 1530 1530 1529 1529 1529 1529 1529 1529 1529 1529 1529 1530 1529 1529 1530 1531 1531 1532 1533 1535 1536 1537 1537 1538 1538 1539 1540 1541 1542 1543 1543 1544 1545 1546 1546 1546 1547 1548 1549 1549 1549 1549 1549 1549 1548 1548 1547 1546 1545 1544 1543 1542 1541 1540 1540 1539
1526 1526 1526 1525 1525 1525 1525 1526 1526 1527 1527 1527 1527 1527 1527 1528 1528 1528 1528 1529 1529 1528 1528 1528 1528 1528 1528 1528 1528 1528 1528 1527 1527 1527 1527 1526 1527 1527 1527 1527 1528 1527 1527 1528 1529 1530 1530 1531 1533 1534 1535 1535 1536 1537 1538 1539 1540 1540 1541 1542 1543 1543 1544 1545 1545 1545 1546 1547 1547 1547 1547 1547 1546 1546 1545 1544 1543 1543 1542 1541 1541 1540 1539 1538 1537
1523 1522 1522 1522 1522 1522 1522 1522 1522 1522 1523 1523 1522 1523 1523 1524 1524 1524 1525 1525 1525 1525 1525 1525 1525 1525 1525 1525 1525 1525 1525 1525 1525 1525 1525 1524 1525 1525 1525 1526 1526 1525 1526 1527 1528 1528 1529 1530 1531 1532 1533 1534 1535 1536 1537 1537 1538 1539 1539 1540 1541 1541 1542 1543 1544 1544 1544 1545 1545 1546 1546 1545 1544 1543 1542 1542 1541 1540 1540 1539 1539 1538 1537 1536 1535
1520 1519 1519 1519 1519 1518 1518 1518 1518 1518 1518 1519 1519 1519 1519 1520 1521 1521 1521 1521 1522 1522 1522 1522 1522 1521 1521 1521 1521 1521 1521 1521 1521 1522 1522 1522 1523 1523 1523 1524 1524 1524 1524 1525 1527 1527 1528 1529 1530 1531 1532 1533 1534 1534 1535 1535 1536 1537 1538 1538 1539 1540 1541 1542 1542 1543 1543 1543 1543 1544 1544 1543 1542 1541 1540 1539 1539 1538 1537 1537 1536 1536 1535 1534 1533
1518 1518 1517 1517 1516 1516 1516 1515 1515 1515 1515 1515 1516 1516 1516 1517 1517 1518 1518 1518 1518 1518 1519 1519 1519 1518 1518 1518 1518 1517 1517 1517 1518 1518 1518 1519 1520 1521 1521 1522 1523 1523 1523 1524 1525 1525 1526 1527 1528 1530 1531 1532 1532 1533 1533 1533 1534 1535 1536 1537 1538 1539 1539 1540 1540 1541 1541 1541 1541 1541 1541 1541 1541 1540 1539 1538 1537 1536 1536 1535 1535 1534 1533 1532 1531
1517 1516 1516 1516 1515 1515 1514 1514 1514 1514 1513 1513 1513 1513 1514 1514 1514 1515 1515 1515 1515 1515 1515 1515 1515 1515 1514 1514 1514 1514 1513 1513 1514 1515 1516 1516 1517 1517 1518 1519 1520 1521 1521 1521 1522 1524 1524 1525 1526 1528 1529 1530 1530 1531 1531 1532 1532 1533 1535 1535 1536 1537 1537 1538 1538 1539 1539 1539 1539 1539 1539 1539 1539 1539 1538 1537 1536 1535 1535 1534 1533 1532 1531 1530 1529
1516 1515 1515 1514 1514 1513 1513 1513 1512 1512 1512 1511 1511 1511 1511 1511 1510 1511 1511 1511 1511 1511 1511 1511 1511 1510 1511 1511 1511 1510 1510 1510 1511 1512 1512 1512 1512 1513 1514 1515 1516 1517 1518 1519 1520 1521 1522 1523 1524 1525 1526 1527 1528 1529 1530 1530 1531 1532 1533 1534 1534 1535 1535 1536 1536 1537 1538 1538 1538 1538 1538 1538 1538 1537 1536 1535 1534 1533 1532 1532 1531 1530 1528 1527 1526
1515 1514 1514 1513 1513 1512 1512 1511 1510 1510 1509 1509 1509 1509 1508 1508 1508 1507 1507 1507 1507 1507 1507 1507 1507 1507 1507 1507 1507 1507 1507 1508 1508 1508 1508 1508 1509 1509 1510 1511 1512 1513 1514 1515 1517 1519 1520 1520 1522 1523 1524 1525 1526 1527 1528 1529 1529 1530 1531 1532 1533 1533 1534 1535 1535 1535 1536 1536 1536 1536 1536 1536 1536 1535 1534 1533 1532 1531 1530 1529 1528 1527 1525 1523 1522
1513 1513 1512 1512 1512 1511 1511 1510 1509 1508 1508 1507 1507 1506 1506 1506 1505 1505 1505 1505 1505 1504 1504 1504 1504 1503 1503 1504 1504 1504 1504 1504 1505 1505 1506 1506 1505 1505 1505 1507 1509 1510 1512 1513 1515 1516 1517 1518 1520 1521 1522 1523 1524 1525 1526 1527 1528 1529 1529 1530 1531 1532 1532 1533 1533 1534 1534 1535 1535 1535 1534 1534 1534 1533 1532 1531 1530 1529 1528 1527 1525 1524 1522 1521 1519
1512 1512 1512 1511 1511 1511 1510 1509 1508 1507 1506 1505 1505 1504 1504 1503 1503 1502 1502 1503 1503 1502 1501 1501 1501 1501 1500 1500 1501 1501 1501 1501 1502 1502 1503 1503 1502 1502 1503 1505 1506 1508 1511 1513 1513 1514 1515 1516 1517 1518 1519 1521 1523 1524 1525 1526 1527 1527 1527 1528 1529 1529 1530 1531 1532 1532 1533 1533 1533 1533 1533 1532 1532 1531 1530 1529 1528 1527 1526 1525 1523 1522 1520 1518 1517
1511 1511 1511 1511 1510 1510 1509 1508 1507 1506 1504 1503 1502 1501 1501 1501 1500 1499 1499 1499 1500 1500 1499 1498 1498 1498 1497 1497 1497 1498 1498 1498 1499 1499 1499 1500 1500 1500 1502 1504 1505 1507 1510 1511 1511 1511 1512 1513 1513 1514 1516 1519 1521 1523 1524 1525 1525 1526 1526 1526 1527 1528 1528 1529 1530 1531 1531 1532 1532 1531 1531 1530 1529 1528 1528 1527 1526 1525 1524 1523 1521 1519 1518 1516 1515
1512 1511 1511 1510 1510 1509 1508 1507 1506 1504 1503 1502 1500 1498 1497 1496 1496 1497 1496 1495 1495 1495 1495 1495 1495 1495 1494 1493 1493 1494 1495 1496 1496 1496 1496 1497 1497 1498 1500 1502 1503 1505 1508 1511 1511 1511 1510 1510 1512 1513 1515 1518 1520 1522 1523 1524 1524 1525 1525 1525 1526 1526 1527 1528 1529 1530 1530 1530 1530 1530 1529 1528 1528 1527 1526 1526 1525 1524 1522 1521 1519 1517 1516 1514 1513
1512 1511 1511 1510 1509 1508 1507 1506 1504 1503 1502 1500 1499 1497 1495 1493 1492 1492 1492 1491 1491 1490 1491 1491 1491 1491 1491 1490 1490 1490 1491 1492 1493 1494 1494 1494 1495 1496 1498 1500 1501 1503 1506 1508 1510 1510 1510 1510 1512 1514 1516 1518 1519 1520 1522 1522 1523 1524 1524 1524 1525 1526 1526 1527 1528 1529 1529 1529 1529 1528 1528 1527 1526 1526 1525 1524 1523 1522 1520 1518 1517 1515 1514 1513 1512
1512 1511 1511 1510 1509 1507 1506 1505 1503 1502 1500 1499 1497 1495 1494 1492 1489 1487 1486 1486 1486 1486 1486 1486 1486 1486 1486 1487 1487 1487 1487 1489 1490 1491 1492 1492 1493 1494 1495 1497 1498 1500 1502 1503 1505 1507 1508 1509 1510 1512 1514 1517 1518 1519 1519 1520 1521 1522 1523 1524 1524 1525 1526 1526 1527 1527 1528 1528 1528 1527 1526 1526 1525 1524 1523 1522 1521 1519 1518 1516 1515 1514 1513 1512 1510
1512 1511 1510 1509 1508 1506 1505 1504 1502 1500 1498 1497 1495 1493 1492 1490 1488 1485 1483 1481 1480 1480 1481 1481 1482 1482 1482 1483 1483 1483 1484 1485 1486 1488 1489 1490 1491 1491 1492 1494 1496 1498 1499 1500 1501 1503 1505 1507 1508 1510 1512 1514 1515 1516 1517 1518 1520 1521 1522 1523 1523 1524 1524 1525 1525 1526 1527 1527 1527 1526 1525 1524 1523 1522 1521 1520 1518 1517 1516 1515 1514 1513 1512 1510 1509
1511 1510 1509 1508 1507 1505 1504 1502 1500 1498 1496 1494 1492 1491 1489 1487 1486 1484 1482 1480 1478 1477 1477 1477 1477 1478 1479 1480 1480 1480 1481 1481 1483 1484 1486 1487 1488 1489 1490 1491 1493 1494 1495 1496 1497 1499 1502 1504 1506 1508 1510 1512 1513 1514 1515 1517 1518 1520 1521 1522 1522 1523 1523 1524 1525 1525 1526 1526 1526 1525 1524 1523 1522 1520 1519 1518 1517 1516 1515 1514 1512 1511 1510 1509 1508
1510 1510 1508 1507 1506 1504 1503 1501 1498 1496 1494 1492 1490 1488 1487 1485 1484 1482 1480 1479 1478 1476 1475 1474 1474 1475 1476 1477 1477 1477 1478 1478 1479 1480 1482 1483 1485 1486 1486 1487 1489 1490 1492 1493 1494 1495 1498 1501 1504 1506 1508 1509 1511 1513 1514 1515 1517 1519 1520 1521 1522 1522 1523 1524 1525 1525 1525 1525 1524 1523 1522 1521 1520 1519 1518 1516 1515 1514 1513 1512 1511 1510 1509 1508 1507
1510 1509 1507 1506 1504 1503 1502 1500 1498 1496 1494 1492 1489 1487 1485 1484 1482 1481 1479 1478 1477 1476 1474 1473 1473 1473 1474 1475 1475 1475 1474 1475 1476 1477 1478 1479 1481 1482 1483 1484 1486 1487 1489 1491 1492 1493 1495 1499 1504 1506 1506 1507 1509 1511 1513 1514 1516 1518 1519 1520 1521 1522 1522 1523 1524 1524 1523 1523 1522 1521 1521 1520 1519 1518 1516 1515 1514 1513 1512 1510 1509 1508 1508 1507 1506
1509 1508 1506 1505 1503 1502 1501 1499 1497 1496 1494 1491 1489 1487 1485 1483 1481 1480 1479 1477 1476 1474 1473 1472 1472 1472 1473 1473 1473 1473 1472 1472 1472 1473 1475 1476 1477 1479 1480 1482 1483 1485 1487 1489 1491 1493 1494 1497 1501 1505 1506 1507 1508 1510 1511 1513 1514 1516 1517 1519 1520 1521 1522 1522 1522 1522 1522 1521 1521 1520 1520 1519 1517 1516 1515 1513 1512 1511 1510 1509 1508 1507 1507 1506 1505
1509 1507 1506 1504 1502 1501 1500 1499 1497 1495 1493 1491 1489 1487 1484 1482 1481 1479 1478 1476 1475 1473 1472 1472 1472 1472 1472 1472 1472 1471 1470 1470 1470 1471 1472 1474 1475 1476 1478 1480 1482 1484 1485 1487 1490 1492 1494 1495 1499 1502 1505 1506 1508 1510 1511 1512 1513 1515 1516 1518 1519 1520 1520 1521 1521 1520 1520 1520 1520 1519 1518 1518 1516 1515 1513 1511 1510 1509 1508 1508 1507 1507 1506 1505 1504
1508 1507 1505 1503 1502 1501 1500 1499 1497 1495 1493 1491 1489 1487 1485 1483 1481 1480 1478 1476 1474 1473 1472 1471 1471 1471 1470 1470 1470 1470 1470 1470 1470 1470 1471 1472 1474 1476 1477 1479 1481 1482 1484 1487 1490 1492 1494 1496 1499 1502 1504 1506 1507 1509 1510 1511 1512 1513 1515 1517 1518 1518 1519 1519 1519 1519 1519 1519 1519 1518 1518 1517 1515 1513 1512 1510 1509 1508 1508 1508 1507 1506 1505 1504 1503
1508 1506 1504 1503 1502 1501 1500 1499 1497 1495 1494 1492 1490 1488 1486 1484 1482 1481 1479 1477 1475 1473 1472 1471 1470 1470 1470 1469 1469 1470 1471 1471 1471 1471 1472 1472 1474 1476 1478 1480 1481 1483 1485 1487 1489 1492 1495 1497 1499 1501 1503 1505 1506 1507 1509 1510 1511 1512 1514 1516 1517 1518 1518 1518 1518 1518 1518 1518 1518 1517 1517 1516 1514 1512 1511 1510 1509 1509 1508 1508 1507 1506 1505 1504 1503
1507 1506 1504 1503 1502 1502 1500 1499 1497 1496 1494 1493 1491 1489 1487 1485 1483 1482 1480 1478 1476 1475 1473 1472 1472 1471 1471 1470 1470 1471 1473 1474 1474 1475 1475 1476 1477 1478 1480 1482 1484 1485 1486 1487 1489 1492 1495 1497 1499 1501 1502 1504 1505 1507 1508 1510 1510 1512 1514 1515 1517 1517 1518 1518 1518 1517 1517 1517 1517 1516 1516 1515 1513 1512 1510 1510 1510 1509 1508 1507 1507 1506 1505 1504 1503
1507 1505 1504 1503 1503 1502 1501 1499 1498 1496 1495 1493 1492 1490 1488 1486 1484 1483 1481 1480 1478 1476 1475 1475 1474 1474 1473 1473 1473 1474 1475 1476 1477 1477 1478 1478 1479 1480 1482 1483 1485 1487 1489 1490 1492 1493 1495 1496 1499 1501 1503 1504 1506 1507 1509 1510 1511 1513 1514 1515 1516 1516 1516 1516 1516 1516 1516 1516 1516 1515 1515 1514 1512 1511 1510 1510 1509 1509 1508 1507 1506 1505 1504 1503 1502
1507 1505 1504 1503 1502 1502 1501 1500 1498 1497 1495 1494 1493 1491 1489 1487 1485 1484 1482 1481 1480 1479 1478 1477 1477 1476 1476 1476 1476 1476 1477 1478 1479 1479 1480 1480 1481 1482 1483 1485 1486 1488 1490 1491 1493 1494 1495 1497 1500 1502 1504 1505 1507 1509 1510 1511 1512 1513 1514 1515 1515 1515 1515 1515 1515 1515 1515 1515 1515 1514 1514 1513 1512 1510 1510 1509 1509 1508 1507 1507 1506 1505 1504 1503 1502
1507 1506 1504 1503 1502 1501 1501 1500 1499 1497 1496 1495 1493 1492 1490 1489 1487 1486 1485 1484 1483 1482 1481 1480 1480 1480 1480 1479 1479 1480 1480 1480 1481 1481 1482 1482 1483 1484 1485 1486 1488 1489 1491 1492 1493 1495 1497 1499 1501 1503 1505 1507 1508 1509 1510 1511 1512 1513 1514 1514 1514 1513 1513 1513 1513 1513 1514 1514 1514 1513 1513 1512 1511 1510 1509 1509 1508 1507 1507 1506 1505 1504 1503 1502 1501
1507 1506 1504 1503 1502 1501 1500 1500 1499 1498 1496 1495 1493 1492 1491 1491 1489 1488 1487 1486 1486 1485 1484 1484 1483 1483 1483 1482 1483 1483 1483 1483 1484 1484 1484 1485 1486 1486 1488 1489 1490 1491 1493 1494 1496 1498 1500 1502 1504 1505 1507 1508 1508 1509 1509 1510 1511 1512 1513 1513 1512 1512 1512 1512 1512 1513 1513 1513 1513 1512 1512 1511 1510 1509 1509 1508 1507 1507 1506 1506 1505 1504 1503 1502 1500
1507 1506 1504 1503 1502 1501 1500 1500 1499 1498 1497 1495 1494 1493 1492 1491 1491 1490 1489 1489 1488 1487 1487 1486 1486 1486 1486 1486 1486 1486 1486 1486 1487 1487 1488 1488 1489 1490 1491 1492 1493 1494 1496 1497 1499 1501 1502 1504 1505 1507 1507 1508 1508 1509 1509 1510 1511 1511 1512 1512 1512 1512 1512 1512 1512 1512 1513 1513 1512 1512 1511 1511 1510 1509 1508 1507 1507 1506 1506 1505 1504 1504 1503 1502 1500
1507 1506 1505 1503 1502 1501 1500 1500 1500 1499 1497 1496 1495 1494 1493 1492 1492 1491 1491 1491 1490 1490 1489 1489 1489 1489 1489 1489 1489 1489 1489 1489 1490 1490 1491 1491 1492 1493 1494 1494 1495 1497 1498 1499 1501 1502 1504 1505 1506 1507 1507 1508 1508 1509 1509 1510 1510 1511 1511 1512 1512 1512 1512 1512 1512 1513 1513 1512 1512 1512 1511 1511 1510 1509 1508 1507 1506 1505 1505 1505 1504 1504 1503 1501 1500
1507 1506 1505 1504 1502 1501 1501 1500 1500 1500 1498 1497 1496 1495 1494 1493 1492 1493 1493 1492 1492 1491 1491 1491 1491 1491 1491 1492 1492 1492 1492 1492 1492 1493 1494 1494 1495 1496 1496 1497 1498 1499 1500 1501 1502 1503 1505 1506 1507 1507 1507 1507 1508 1508 1509 1509 1510 1511 1512 1512 1513 1513 1513 1513 1513 1513 1513 1512 1512 1512 1511 1511 1510 1509 1508 1507 1506 1505 1505 1505 1504 1503 1502 1501 1500
1507 1506 1505 1504 1503 1502 1502 1501 1501 1500 1499 1498 1497 1496 1495 1495 1494 1494 1494 1494 1494 1493 1493 1493 1493 1493 1493 1494 1494 1494 1494 1495 1495 1495 1496 1497 1497 1498 1498 1499 1499 1500 1501 1502 1503 1504 1505 1506 1507 1507 1507 1507 1508 1508 1509 1510 1511 1512 1512 1513 1513 1513 1513 1513 1513 1513 1513 1513 1512 1512 1511 1510 1510 1509 1508 1506 1505 1505 1504 1504 1504 1503 1502 1501 1500
1506 1506 1505 1505 1504 1503 1503 1502 1501 1500 1500 1499 1498 1498 1497 1497 1496 1496 1496 1496 1496 1496 1496 1495 1495 1495 1495 1496 1496 1497 1497 1497 1497 1498 1498 1499 1499 1500 1500 1500 1501 1501 1502 1503 1504 1504 1506 1506 1507 1507 1508 1508 1508 1509 1510 1511 1512 1512 1513 1513 1513 1513 1514 1514 1513 1513 1513 1513 1512 1512 1511 1510 1509 1508 1507 1506 1505 1504 1504 1504 1503 1503 1502 1501 1500